Year,Month,Day,Hour,Minute,Value (Times are PST for temperature in C)
2015,05,21,00,00,19.30
2015,05,21,00,01,19.40
2015,05,21,00,02,19.50
2015,05,21,00,03,19.60
2015,05,21,00,04,19.70
2015,05,21,00,05,19.80
2015,05,21,00,06,19.90
2015,05,21,00,07,20.00
2015,05,21,00,08,20.10
2015,05,21,00,09,20.10
2015,05,21,00,10,20.20
2015,05,21,00,11,20.30
2015,05,21,00,12,20.40
2015,05,21,00,13,20.50
2015,05,21,00,14,20.50
2015,05,21,00,15,20.60
2015,05,21,00,16,20.60
2015,05,21,00,17,20.60
2015,05,21,00,18,20.60
2015,05,21,00,19,20.60
2015,05,21,00,20,20.60
2015,05,21,00,21,20.60
2015,05,21,00,22,20.60
2015,05,21,00,23,20.60
2015,05,21,00,24,20.50
2015,05,21,00,25,20.50
2015,05,21,00,26,20.50
2015,05,21,00,27,20.40
2015,05,21,00,28,20.40
2015,05,21,00,29,20.40
2015,05,21,00,30,20.30
2015,05,21,00,31,20.30
2015,05,21,00,32,20.30
2015,05,21,00,33,20.30
2015,05,21,00,34,20.20
2015,05,21,00,35,20.20
2015,05,21,00,36,20.20
2015,05,21,00,37,20.20
2015,05,21,00,38,20.10
2015,05,21,00,39,20.10
2015,05,21,00,40,20.00
2015,05,21,00,41,20.00
2015,05,21,00,42,19.90
2015,05,21,00,43,19.90
2015,05,21,00,44,19.90
2015,05,21,00,45,19.80
2015,05,21,00,46,19.80
2015,05,21,00,47,19.80
2015,05,21,00,48,19.80
2015,05,21,00,49,19.80
2015,05,21,00,50,19.70
2015,05,21,00,51,19.70
2015,05,21,00,52,19.60
2015,05,21,00,53,19.60
2015,05,21,00,54,19.60
2015,05,21,00,55,19.50
2015,05,21,00,56,19.50
2015,05,21,00,57,19.40
2015,05,21,00,58,19.40
2015,05,21,00,59,19.40
2015,05,21,01,00,19.40
2015,05,21,01,01,19.40
2015,05,21,01,02,19.40
2015,05,21,01,03,19.30
2015,05,21,01,04,19.30
2015,05,21,01,05,19.30
2015,05,21,01,06,19.30
2015,05,21,01,07,19.20
2015,05,21,01,08,19.20
2015,05,21,01,09,19.20
2015,05,21,01,10,19.20
2015,05,21,01,11,19.10
2015,05,21,01,12,19.10
2015,05,21,01,13,19.10
2015,05,21,01,14,19.00
2015,05,21,01,15,19.00
2015,05,21,01,16,19.00
2015,05,21,01,17,19.00
2015,05,21,01,18,18.90
2015,05,21,01,19,18.90
2015,05,21,01,20,18.90
2015,05,21,01,21,18.90
2015,05,21,01,22,18.90
2015,05,21,01,23,18.90
2015,05,21,01,24,18.90
2015,05,21,01,25,18.90
2015,05,21,01,26,18.90
2015,05,21,01,27,18.90
2015,05,21,01,28,18.90
2015,05,21,01,29,18.90
2015,05,21,01,30,18.90
2015,05,21,01,31,18.90
2015,05,21,01,32,18.90
2015,05,21,01,33,18.90
2015,05,21,01,34,18.90
2015,05,21,01,35,18.90
2015,05,21,01,36,18.80
2015,05,21,01,37,18.80
2015,05,21,01,38,18.80
2015,05,21,01,39,18.70
2015,05,21,01,40,18.70
2015,05,21,01,41,18.70
2015,05,21,01,42,18.70
2015,05,21,01,43,18.70
2015,05,21,01,44,18.60
2015,05,21,01,45,18.60
2015,05,21,01,46,18.60
2015,05,21,01,47,18.60
2015,05,21,01,48,18.60
2015,05,21,01,49,18.60
2015,05,21,01,50,18.60
2015,05,21,01,51,18.60
2015,05,21,01,52,18.60
2015,05,21,01,53,18.60
2015,05,21,01,54,18.60
2015,05,21,01,55,18.60
2015,05,21,01,56,18.60
2015,05,21,01,57,18.60
2015,05,21,01,58,18.60
2015,05,21,01,59,18.60
2015,05,21,02,00,18.60
2015,05,21,02,01,18.60
2015,05,21,02,02,18.60
2015,05,21,02,03,18.60
2015,05,21,02,04,18.60
2015,05,21,02,05,18.60
2015,05,21,02,06,18.60
2015,05,21,02,07,18.60
2015,05,21,02,08,18.60
2015,05,21,02,09,18.60
2015,05,21,02,10,18.60
2015,05,21,02,11,18.60
2015,05,21,02,12,18.60
2015,05,21,02,13,18.60
2015,05,21,02,14,18.60
2015,05,21,02,15,18.50
2015,05,21,02,16,18.50
2015,05,21,02,17,18.50
2015,05,21,02,18,18.40
2015,05,21,02,19,18.40
2015,05,21,02,20,18.40
2015,05,21,02,21,18.40
2015,05,21,02,22,18.40
2015,05,21,02,23,18.40
2015,05,21,02,24,18.40
2015,05,21,02,25,18.40
2015,05,21,02,26,18.40
2015,05,21,02,27,18.40
2015,05,21,02,28,18.30
2015,05,21,02,29,18.30
2015,05,21,02,30,18.30
2015,05,21,02,31,18.30
2015,05,21,02,32,18.30
2015,05,21,02,33,18.20
2015,05,21,02,34,18.20
2015,05,21,02,35,18.20
2015,05,21,02,36,18.20
2015,05,21,02,37,18.20
2015,05,21,02,38,18.20
2015,05,21,02,39,18.10
2015,05,21,02,40,18.10
2015,05,21,02,41,18.10
2015,05,21,02,42,18.10
2015,05,21,02,43,18.10
2015,05,21,02,44,18.00
2015,05,21,02,45,18.00
2015,05,21,02,46,17.90
2015,05,21,02,47,17.90
2015,05,21,02,48,17.90
2015,05,21,02,49,17.80
2015,05,21,02,50,17.80
2015,05,21,02,51,17.80
2015,05,21,02,52,17.80
2015,05,21,02,53,17.70
2015,05,21,02,54,17.70
2015,05,21,02,55,17.70
2015,05,21,02,56,17.60
2015,05,21,02,57,17.60
2015,05,21,02,58,17.60
2015,05,21,02,59,17.60
2015,05,21,03,00,17.50
2015,05,21,03,01,17.50
2015,05,21,03,02,17.40
2015,05,21,03,03,17.40
2015,05,21,03,04,17.40
2015,05,21,03,05,17.40
2015,05,21,03,06,17.40
2015,05,21,03,07,17.40
2015,05,21,03,08,17.40
2015,05,21,03,09,17.40
2015,05,21,03,10,17.30
2015,05,21,03,11,17.30
2015,05,21,03,12,17.30
2015,05,21,03,13,17.30
2015,05,21,03,14,17.30
2015,05,21,03,15,17.30
2015,05,21,03,16,17.30
2015,05,21,03,17,17.30
2015,05,21,03,18,17.20
2015,05,21,03,19,17.20
2015,05,21,03,20,17.20
2015,05,21,03,21,17.20
2015,05,21,03,22,17.20
2015,05,21,03,23,17.20
2015,05,21,03,24,17.20
2015,05,21,03,25,17.20
2015,05,21,03,26,17.10
2015,05,21,03,27,17.10
2015,05,21,03,28,17.10
2015,05,21,03,29,17.10
2015,05,21,03,30,17.10
2015,05,21,03,31,17.00
2015,05,21,03,32,17.00
2015,05,21,03,33,17.00
2015,05,21,03,34,16.90
2015,05,21,03,35,16.90
2015,05,21,03,36,16.90
2015,05,21,03,37,16.80
2015,05,21,03,38,16.80
2015,05,21,03,39,16.70
2015,05,21,03,40,16.70
2015,05,21,03,41,16.70
2015,05,21,03,42,16.70
2015,05,21,03,43,16.80
2015,05,21,03,44,16.80
2015,05,21,03,45,16.80
2015,05,21,03,46,16.80
2015,05,21,03,47,16.80
2015,05,21,03,48,16.70
2015,05,21,03,49,16.70
2015,05,21,03,50,16.70
2015,05,21,03,51,16.70
2015,05,21,03,52,16.70
2015,05,21,03,53,16.60
2015,05,21,03,54,16.60
2015,05,21,03,55,16.60
2015,05,21,03,56,16.50
2015,05,21,03,57,16.50
2015,05,21,03,58,16.50
2015,05,21,03,59,16.40
2015,05,21,04,00,16.40
2015,05,21,04,01,16.40
2015,05,21,04,02,16.30
2015,05,21,04,03,16.30
2015,05,21,04,04,16.30
2015,05,21,04,05,16.30
2015,05,21,04,06,16.20
2015,05,21,04,07,16.20
2015,05,21,04,08,16.20
2015,05,21,04,09,16.20
2015,05,21,04,10,16.20
2015,05,21,04,11,16.20
2015,05,21,04,12,16.20
2015,05,21,04,13,16.20
2015,05,21,04,14,16.10
2015,05,21,04,15,16.10
2015,05,21,04,16,16.10
2015,05,21,04,17,16.10
2015,05,21,04,18,16.10
2015,05,21,04,19,16.10
2015,05,21,04,20,16.20
2015,05,21,04,21,16.10
2015,05,21,04,22,16.20
2015,05,21,04,23,16.20
2015,05,21,04,24,16.20
2015,05,21,04,25,16.20
2015,05,21,04,26,16.20
2015,05,21,04,27,16.10
2015,05,21,04,28,16.10
2015,05,21,04,29,16.10
2015,05,21,04,30,16.10
2015,05,21,04,31,16.10
2015,05,21,04,32,16.10
2015,05,21,04,33,16.00
2015,05,21,04,34,16.00
2015,05,21,04,35,16.00
2015,05,21,04,36,16.00
2015,05,21,04,37,16.00
2015,05,21,04,38,16.00
2015,05,21,04,39,16.10
2015,05,21,04,40,16.10
2015,05,21,04,41,16.10
2015,05,21,04,42,16.10
2015,05,21,04,43,16.10
2015,05,21,04,44,16.10
2015,05,21,04,45,16.10
2015,05,21,04,46,16.10
2015,05,21,04,47,16.10
2015,05,21,04,48,16.10
2015,05,21,04,49,16.10
2015,05,21,04,50,16.10
2015,05,21,04,51,16.10
2015,05,21,04,52,16.10
2015,05,21,04,53,16.10
2015,05,21,04,54,16.00
2015,05,21,04,55,16.00
2015,05,21,04,56,16.00
2015,05,21,04,57,15.90
2015,05,21,04,58,15.90
2015,05,21,04,59,15.90
2015,05,21,05,00,15.80
2015,05,21,05,01,15.80
2015,05,21,05,02,15.80
2015,05,21,05,03,15.80
2015,05,21,05,04,15.80
2015,05,21,05,05,15.80
2015,05,21,05,06,15.70
2015,05,21,05,07,15.70
2015,05,21,05,08,15.70
2015,05,21,05,09,15.70
2015,05,21,05,10,15.70
2015,05,21,05,11,15.70
2015,05,21,05,12,15.60
2015,05,21,05,13,15.60
2015,05,21,05,14,15.60
2015,05,21,05,15,15.60
2015,05,21,05,16,15.50
2015,05,21,05,17,15.50
2015,05,21,05,18,15.40
2015,05,21,05,19,15.40
2015,05,21,05,20,15.40
2015,05,21,05,21,15.40
2015,05,21,05,22,15.50
2015,05,21,05,23,15.50
2015,05,21,05,24,15.50
2015,05,21,05,25,15.60
2015,05,21,05,26,15.60
2015,05,21,05,27,15.60
2015,05,21,05,28,15.70
2015,05,21,05,29,15.70
2015,05,21,05,30,15.70
2015,05,21,05,31,15.70
2015,05,21,05,32,15.70
2015,05,21,05,33,15.70
2015,05,21,05,34,15.70
2015,05,21,05,35,15.70
2015,05,21,05,36,15.70
2015,05,21,05,37,15.70
2015,05,21,05,38,15.70
2015,05,21,05,39,15.70
2015,05,21,05,40,15.70
2015,05,21,05,41,15.60
2015,05,21,05,42,15.60
2015,05,21,05,43,15.60
2015,05,21,05,44,15.60
2015,05,21,05,45,15.60
2015,05,21,05,46,15.50
2015,05,21,05,47,15.50
2015,05,21,05,48,15.50
2015,05,21,05,49,15.40
2015,05,21,05,50,15.40
2015,05,21,05,51,15.40
2015,05,21,05,52,15.30
2015,05,21,05,53,15.30
2015,05,21,05,54,15.30
2015,05,21,05,55,15.30
2015,05,21,05,56,15.30
2015,05,21,05,57,15.30
2015,05,21,05,58,15.20
2015,05,21,05,59,15.20
2015,05,21,06,00,15.20
2015,05,21,06,01,15.30
2015,05,21,06,02,15.30
2015,05,21,06,03,15.30
2015,05,21,06,04,15.30
2015,05,21,06,05,15.30
2015,05,21,06,06,15.40
2015,05,21,06,07,15.40
2015,05,21,06,08,15.40
2015,05,21,06,09,15.40
2015,05,21,06,10,15.40
2015,05,21,06,11,15.40
2015,05,21,06,12,15.40
2015,05,21,06,13,15.40
2015,05,21,06,14,15.40
2015,05,21,06,15,15.30
2015,05,21,06,16,15.30
2015,05,21,06,17,15.40
2015,05,21,06,18,15.30
2015,05,21,06,19,15.40
2015,05,21,06,20,15.40
2015,05,21,06,21,15.40
2015,05,21,06,22,15.40
2015,05,21,06,23,15.40
2015,05,21,06,24,15.40
2015,05,21,06,25,15.40
2015,05,21,06,26,15.40
2015,05,21,06,27,15.40
2015,05,21,06,28,15.40
2015,05,21,06,29,15.40
2015,05,21,06,30,15.40
2015,05,21,06,31,15.40
2015,05,21,06,32,15.50
2015,05,21,06,33,15.50
2015,05,21,06,34,15.50
2015,05,21,06,35,15.50
2015,05,21,06,36,15.50
2015,05,21,06,37,15.50
2015,05,21,06,38,15.50
2015,05,21,06,39,15.50
2015,05,21,06,40,15.60
2015,05,21,06,41,15.60
2015,05,21,06,42,15.60
2015,05,21,06,43,15.60
2015,05,21,06,44,15.60
2015,05,21,06,45,15.60
2015,05,21,06,46,15.70
2015,05,21,06,47,15.70
2015,05,21,06,48,15.70
2015,05,21,06,49,15.70
2015,05,21,06,50,15.70
2015,05,21,06,51,15.70
2015,05,21,06,52,15.70
2015,05,21,06,53,15.70
2015,05,21,06,54,15.70
2015,05,21,06,55,15.70
2015,05,21,06,56,15.70
2015,05,21,06,57,15.70
2015,05,21,06,58,15.80
2015,05,21,06,59,15.80
2015,05,21,07,00,15.80
2015,05,21,07,01,15.80
2015,05,21,07,02,15.80
2015,05,21,07,03,15.80
2015,05,21,07,04,15.90
2015,05,21,07,05,15.90
2015,05,21,07,06,15.90
2015,05,21,07,07,16.00
2015,05,21,07,08,16.00
2015,05,21,07,09,16.10
2015,05,21,07,10,16.10
2015,05,21,07,11,16.10
2015,05,21,07,12,16.20
2015,05,21,07,13,16.20
2015,05,21,07,14,16.20
2015,05,21,07,15,16.30
2015,05,21,07,16,16.30
2015,05,21,07,17,16.30
2015,05,21,07,18,16.30
2015,05,21,07,19,16.30
2015,05,21,07,20,16.40
2015,05,21,07,21,16.40
2015,05,21,07,22,16.40
2015,05,21,07,23,16.40
2015,05,21,07,24,16.40
2015,05,21,07,25,16.50
2015,05,21,07,26,16.50
2015,05,21,07,27,16.50
2015,05,21,07,28,16.50
2015,05,21,07,29,16.60
2015,05,21,07,30,16.60
2015,05,21,07,31,16.60
2015,05,21,07,32,16.60
2015,05,21,07,33,16.70
2015,05,21,07,34,16.70
2015,05,21,07,35,16.70
2015,05,21,07,36,16.70
2015,05,21,07,37,16.70
2015,05,21,07,38,16.80
2015,05,21,07,39,16.80
2015,05,21,07,40,16.70
2015,05,21,07,41,16.70
2015,05,21,07,42,16.70
2015,05,21,07,43,16.70
2015,05,21,07,44,16.70
2015,05,21,07,45,16.70
2015,05,21,07,46,16.70
2015,05,21,07,47,16.80
2015,05,21,07,48,16.80
2015,05,21,07,49,16.80
2015,05,21,07,50,16.80
2015,05,21,07,51,16.90
2015,05,21,07,52,16.90
2015,05,21,07,53,16.90
2015,05,21,07,54,16.90
2015,05,21,07,55,16.90
2015,05,21,07,56,16.90
2015,05,21,07,57,16.90
2015,05,21,07,58,16.90
2015,05,21,07,59,16.90
2015,05,21,08,00,16.90
2015,05,21,08,01,16.90
2015,05,21,08,02,16.90
2015,05,21,08,03,16.90
2015,05,21,08,04,17.00
2015,05,21,08,05,17.00
2015,05,21,08,06,17.00
2015,05,21,08,07,17.00
2015,05,21,08,08,17.00
2015,05,21,08,09,17.00
2015,05,21,08,10,17.00
2015,05,21,08,11,17.00
2015,05,21,08,12,17.00
2015,05,21,08,13,17.00
2015,05,21,08,14,17.00
2015,05,21,08,15,17.00
2015,05,21,08,16,17.00
2015,05,21,08,17,17.10
2015,05,21,08,18,17.10
2015,05,21,08,19,17.20
2015,05,21,08,20,17.20
2015,05,21,08,21,17.30
2015,05,21,08,22,17.30
2015,05,21,08,23,17.40
2015,05,21,08,24,17.40
2015,05,21,08,25,17.40
2015,05,21,08,26,17.50
2015,05,21,08,27,17.50
2015,05,21,08,28,17.50
2015,05,21,08,29,17.50
2015,05,21,08,30,17.50
2015,05,21,08,31,17.50
2015,05,21,08,32,17.60
2015,05,21,08,33,17.60
2015,05,21,08,34,17.60
2015,05,21,08,35,17.50
2015,05,21,08,36,17.50
2015,05,21,08,37,17.60
2015,05,21,08,38,17.60
2015,05,21,08,39,17.60
2015,05,21,08,40,17.70
2015,05,21,08,41,17.70
2015,05,21,08,42,17.80
2015,05,21,08,43,17.80
2015,05,21,08,44,17.90
2015,05,21,08,45,17.90
2015,05,21,08,46,17.90
2015,05,21,08,47,17.90
2015,05,21,08,48,17.90
2015,05,21,08,49,17.90
2015,05,21,08,50,17.90
2015,05,21,08,51,17.90
2015,05,21,08,52,17.90
2015,05,21,08,53,17.90
2015,05,21,08,54,17.90
2015,05,21,08,55,18.00
2015,05,21,08,56,18.00
2015,05,21,08,57,18.00
2015,05,21,08,58,18.10
2015,05,21,08,59,18.10
2015,05,21,09,00,18.10
2015,05,21,09,01,18.10
2015,05,21,09,02,18.00
2015,05,21,09,03,18.00
2015,05,21,09,04,17.90
2015,05,21,09,05,17.90
2015,05,21,09,06,17.90
2015,05,21,09,07,18.00
2015,05,21,09,08,18.00
2015,05,21,09,09,18.00
2015,05,21,09,10,18.10
2015,05,21,09,11,18.10
2015,05,21,09,12,18.00
2015,05,21,09,13,17.90
2015,05,21,09,14,17.80
2015,05,21,09,15,17.80
2015,05,21,09,16,17.80
2015,05,21,09,17,17.80
2015,05,21,09,18,17.80
2015,05,21,09,19,17.70
2015,05,21,09,20,17.60
2015,05,21,09,21,17.50
2015,05,21,09,22,17.40
2015,05,21,09,23,17.40
2015,05,21,09,24,17.40
2015,05,21,09,25,17.40
2015,05,21,09,26,17.40
2015,05,21,09,27,17.30
2015,05,21,09,28,17.30
2015,05,21,09,29,17.30
2015,05,21,09,30,17.30
2015,05,21,09,31,17.20
2015,05,21,09,32,17.10
2015,05,21,09,33,17.00
2015,05,21,09,34,17.00
2015,05,21,09,35,17.00
2015,05,21,09,36,16.90
2015,05,21,09,37,16.90
2015,05,21,09,38,17.00
2015,05,21,09,39,17.00
2015,05,21,09,40,17.10
2015,05,21,09,41,17.10
2015,05,21,09,42,17.20
2015,05,21,09,43,17.20
2015,05,21,09,44,17.10
2015,05,21,09,45,17.10
2015,05,21,09,46,17.10
2015,05,21,09,47,17.10
2015,05,21,09,48,17.10
2015,05,21,09,49,17.20
2015,05,21,09,50,17.10
2015,05,21,09,51,17.10
2015,05,21,09,52,17.10
2015,05,21,09,53,17.10
2015,05,21,09,54,17.10
2015,05,21,09,55,17.00
2015,05,21,09,56,17.00
2015,05,21,09,57,17.00
2015,05,21,09,58,17.10
2015,05,21,09,59,17.10
2015,05,21,10,00,17.20
2015,05,21,10,01,17.20
2015,05,21,10,02,17.30
2015,05,21,10,03,17.30
2015,05,21,10,04,17.30
2015,05,21,10,05,17.40
2015,05,21,10,06,17.40
2015,05,21,10,07,17.40
2015,05,21,10,08,17.50
2015,05,21,10,09,17.60
2015,05,21,10,10,17.60
2015,05,21,10,11,17.80
2015,05,21,10,12,17.80
2015,05,21,10,13,17.90
2015,05,21,10,14,17.90
2015,05,21,10,15,18.00
2015,05,21,10,16,18.10
2015,05,21,10,17,18.20
2015,05,21,10,18,18.30
2015,05,21,10,19,18.40
2015,05,21,10,20,18.50
2015,05,21,10,21,18.60
2015,05,21,10,22,18.60
2015,05,21,10,23,18.60
2015,05,21,10,24,18.60
2015,05,21,10,25,18.60
2015,05,21,10,26,18.60
2015,05,21,10,27,18.70
2015,05,21,10,28,18.80
2015,05,21,10,29,18.80
2015,05,21,10,30,18.80
2015,05,21,10,31,18.80
2015,05,21,10,32,18.90
2015,05,21,10,33,18.90
2015,05,21,10,34,18.90
2015,05,21,10,35,18.90
2015,05,21,10,36,19.00
2015,05,21,10,37,19.10
2015,05,21,10,38,19.20
2015,05,21,10,39,19.20
2015,05,21,10,40,19.20
2015,05,21,10,41,19.10
2015,05,21,10,42,19.10
2015,05,21,10,43,19.20
2015,05,21,10,44,19.30
2015,05,21,10,45,19.40
2015,05,21,10,46,19.50
2015,05,21,10,47,19.60
2015,05,21,10,48,19.60
2015,05,21,10,49,19.70
2015,05,21,10,50,19.70
2015,05,21,10,51,19.70
2015,05,21,10,52,19.70
2015,05,21,10,53,19.60
2015,05,21,10,54,19.60
2015,05,21,10,55,19.60
2015,05,21,10,56,19.60
2015,05,21,10,57,19.70
2015,05,21,10,58,19.70
2015,05,21,10,59,19.60
2015,05,21,11,00,19.60
2015,05,21,11,01,19.50
2015,05,21,11,02,19.40
2015,05,21,11,03,19.40
2015,05,21,11,04,19.40
2015,05,21,11,05,19.40
2015,05,21,11,06,19.50
2015,05,21,11,07,19.60
2015,05,21,11,08,19.50
2015,05,21,11,09,19.50
2015,05,21,11,10,19.50
2015,05,21,11,11,19.60
2015,05,21,11,12,19.70
2015,05,21,11,13,19.80
2015,05,21,11,14,19.90
2015,05,21,11,15,20.10
2015,05,21,11,16,20.20
2015,05,21,11,17,20.30
2015,05,21,11,18,20.30
2015,05,21,11,19,20.30
2015,05,21,11,20,20.30
2015,05,21,11,21,20.30
2015,05,21,11,22,20.30
2015,05,21,11,23,20.30
2015,05,21,11,24,20.40
2015,05,21,11,25,20.50
2015,05,21,11,26,20.50
2015,05,21,11,27,20.60
2015,05,21,11,28,20.70
2015,05,21,11,29,20.70
2015,05,21,11,30,20.70
2015,05,21,11,31,20.70
2015,05,21,11,32,20.70
2015,05,21,11,33,20.60
2015,05,21,11,34,20.50
2015,05,21,11,35,20.40
2015,05,21,11,36,20.30
2015,05,21,11,37,20.20
2015,05,21,11,38,20.10
2015,05,21,11,39,20.00
2015,05,21,11,40,20.00
2015,05,21,11,41,20.00
2015,05,21,11,42,20.10
2015,05,21,11,43,20.10
2015,05,21,11,44,20.10
2015,05,21,11,45,20.20
2015,05,21,11,46,20.30
2015,05,21,11,47,20.30
2015,05,21,11,48,20.40
2015,05,21,11,49,20.40
2015,05,21,11,50,20.40
2015,05,21,11,51,20.30
2015,05,21,11,52,20.30
2015,05,21,11,53,20.20
2015,05,21,11,54,20.20
2015,05,21,11,55,20.20
2015,05,21,11,56,20.30
2015,05,21,11,57,20.20
2015,05,21,11,58,20.20
2015,05,21,11,59,20.20
2015,05,21,12,00,20.20
2015,05,21,12,01,20.30
2015,05,21,12,02,20.40
2015,05,21,12,03,20.50
2015,05,21,12,04,20.60
2015,05,21,12,05,20.60
2015,05,21,12,06,20.60
2015,05,21,12,07,20.60
2015,05,21,12,08,20.50
2015,05,21,12,09,20.50
2015,05,21,12,10,20.50
2015,05,21,12,11,20.50
2015,05,21,12,12,20.50
2015,05,21,12,13,20.40
2015,05,21,12,14,20.40
2015,05,21,12,15,20.40
2015,05,21,12,16,20.40
2015,05,21,12,17,20.40
2015,05,21,12,18,20.40
2015,05,21,12,19,20.40
2015,05,21,12,20,20.30
2015,05,21,12,21,20.30
2015,05,21,12,22,20.40
2015,05,21,12,23,20.40
2015,05,21,12,24,20.40
2015,05,21,12,25,20.40
2015,05,21,12,26,20.40
2015,05,21,12,27,20.40
2015,05,21,12,28,20.50
2015,05,21,12,29,20.60
2015,05,21,12,30,20.70
2015,05,21,12,31,20.60
2015,05,21,12,32,20.60
2015,05,21,12,33,20.50
2015,05,21,12,34,20.40
2015,05,21,12,35,20.50
2015,05,21,12,36,20.50
2015,05,21,12,37,20.60
2015,05,21,12,38,20.60
2015,05,21,12,39,20.60
2015,05,21,12,40,20.50
2015,05,21,12,41,20.40
2015,05,21,12,42,20.50
2015,05,21,12,43,20.60
2015,05,21,12,44,20.60
2015,05,21,12,45,20.60
2015,05,21,12,46,20.60
2015,05,21,12,47,20.60
2015,05,21,12,48,20.50
2015,05,21,12,49,20.50
2015,05,21,12,50,20.50
2015,05,21,12,51,20.60
2015,05,21,12,52,20.60
2015,05,21,12,53,20.60
2015,05,21,12,54,20.60
2015,05,21,12,55,20.70
2015,05,21,12,56,20.80
2015,05,21,12,57,20.90
2015,05,21,12,58,21.00
2015,05,21,12,59,21.10
2015,05,21,13,00,21.30
2015,05,21,13,01,21.40
2015,05,21,13,02,21.50
2015,05,21,13,03,21.60
2015,05,21,13,04,21.70
2015,05,21,13,05,21.80
2015,05,21,13,06,21.80
2015,05,21,13,07,21.90
2015,05,21,13,08,21.90
2015,05,21,13,09,22.00
2015,05,21,13,10,22.00
2015,05,21,13,11,22.10
2015,05,21,13,12,22.10
2015,05,21,13,13,22.20
2015,05,21,13,14,22.20
2015,05,21,13,15,22.10
2015,05,21,13,16,22.10
2015,05,21,13,17,22.20
2015,05,21,13,18,22.20
2015,05,21,13,19,22.20
2015,05,21,13,20,22.20
2015,05,21,13,21,22.30
2015,05,21,13,22,22.40
2015,05,21,13,23,22.40
2015,05,21,13,24,22.60
2015,05,21,13,25,22.70
2015,05,21,13,26,22.80
2015,05,21,13,27,22.80
2015,05,21,13,28,22.90
2015,05,21,13,29,22.90
2015,05,21,13,30,22.90
2015,05,21,13,31,22.90
2015,05,21,13,32,22.90
2015,05,21,13,33,22.80
2015,05,21,13,34,22.80
2015,05,21,13,35,22.80
2015,05,21,13,36,22.80
2015,05,21,13,37,22.80
2015,05,21,13,38,22.90
2015,05,21,13,39,23.00
2015,05,21,13,40,23.10
2015,05,21,13,41,23.10
2015,05,21,13,42,23.10
2015,05,21,13,43,23.20
2015,05,21,13,44,23.30
2015,05,21,13,45,23.40
2015,05,21,13,46,23.40
2015,05,21,13,47,23.40
2015,05,21,13,48,23.20
2015,05,21,13,49,23.20
2015,05,21,13,50,23.20
2015,05,21,13,51,23.20
2015,05,21,13,52,23.20
2015,05,21,13,53,23.20
2015,05,21,13,54,23.30
2015,05,21,13,55,23.30
2015,05,21,13,56,23.30
2015,05,21,13,57,23.40
2015,05,21,13,58,23.50
2015,05,21,13,59,23.50
2015,05,21,14,00,23.60
2015,05,21,14,01,23.70
2015,05,21,14,02,23.80
2015,05,21,14,03,23.80
2015,05,21,14,04,23.80
2015,05,21,14,05,23.80
2015,05,21,14,06,23.80
2015,05,21,14,07,23.80
2015,05,21,14,08,23.80
2015,05,21,14,09,23.80
2015,05,21,14,10,23.80
2015,05,21,14,11,23.70
2015,05,21,14,12,23.60
2015,05,21,14,13,23.60
2015,05,21,14,14,23.60
2015,05,21,14,15,23.60
2015,05,21,14,16,23.70
2015,05,21,14,17,23.80
2015,05,21,14,18,23.80
2015,05,21,14,19,23.80
2015,05,21,14,20,23.80
2015,05,21,14,21,23.80
2015,05,21,14,22,23.80
2015,05,21,14,23,23.90
2015,05,21,14,24,23.90
2015,05,21,14,25,23.90
2015,05,21,14,26,23.90
2015,05,21,14,27,23.90
2015,05,21,14,28,23.80
2015,05,21,14,29,23.80
2015,05,21,14,30,23.80
2015,05,21,14,31,23.80
2015,05,21,14,32,23.70
2015,05,21,14,33,23.60
2015,05,21,14,34,23.60
2015,05,21,14,35,23.70
2015,05,21,14,36,23.70
2015,05,21,14,37,23.70
2015,05,21,14,38,23.80
2015,05,21,14,39,23.90
2015,05,21,14,40,24.00
2015,05,21,14,41,24.00
2015,05,21,14,42,24.10
2015,05,21,14,43,24.10
2015,05,21,14,44,24.10
2015,05,21,14,45,24.10
2015,05,21,14,46,24.10
2015,05,21,14,47,24.20
2015,05,21,14,48,24.20
2015,05,21,14,49,24.30
2015,05,21,14,50,24.30
2015,05,21,14,51,24.30
2015,05,21,14,52,24.30
2015,05,21,14,53,24.40
2015,05,21,14,54,24.50
2015,05,21,14,55,24.50
2015,05,21,14,56,24.40
2015,05,21,14,57,24.30
2015,05,21,14,58,24.30
2015,05,21,14,59,24.20
2015,05,21,15,00,24.20
2015,05,21,15,01,24.30
2015,05,21,15,02,24.30
2015,05,21,15,03,24.40
2015,05,21,15,04,24.40
2015,05,21,15,05,24.50
2015,05,21,15,06,24.50
2015,05,21,15,07,24.50
2015,05,21,15,08,24.40
2015,05,21,15,09,24.50
2015,05,21,15,10,24.60
2015,05,21,15,11,24.60
2015,05,21,15,12,24.60
2015,05,21,15,13,24.50
2015,05,21,15,14,24.40
2015,05,21,15,15,24.20
2015,05,21,15,16,24.20
2015,05,21,15,17,24.20
2015,05,21,15,18,24.20
2015,05,21,15,19,24.30
2015,05,21,15,20,24.30
2015,05,21,15,21,24.30
2015,05,21,15,22,24.30
2015,05,21,15,23,24.40
2015,05,21,15,24,24.60
2015,05,21,15,25,24.70
2015,05,21,15,26,24.80
2015,05,21,15,27,24.80
2015,05,21,15,28,24.70
2015,05,21,15,29,24.60
2015,05,21,15,30,24.50
2015,05,21,15,31,24.30
2015,05,21,15,32,24.20
2015,05,21,15,33,24.10
2015,05,21,15,34,24.20
2015,05,21,15,35,24.20
2015,05,21,15,36,24.20
2015,05,21,15,37,24.30
2015,05,21,15,38,24.40
2015,05,21,15,39,24.40
2015,05,21,15,40,24.50
2015,05,21,15,41,24.50
2015,05,21,15,42,24.60
2015,05,21,15,43,24.50
2015,05,21,15,44,24.50
2015,05,21,15,45,24.40
2015,05,21,15,46,24.50
2015,05,21,15,47,24.50
2015,05,21,15,48,24.50
2015,05,21,15,49,24.60
2015,05,21,15,50,24.50
2015,05,21,15,51,24.50
2015,05,21,15,52,24.50
2015,05,21,15,53,24.40
2015,05,21,15,54,24.40
2015,05,21,15,55,24.40
2015,05,21,15,56,24.30
2015,05,21,15,57,24.20
2015,05,21,15,58,24.10
2015,05,21,15,59,24.00
2015,05,21,16,00,23.80
2015,05,21,16,01,23.70
2015,05,21,16,02,23.50
2015,05,21,16,03,23.50
2015,05,21,16,04,23.40
2015,05,21,16,05,23.40
2015,05,21,16,06,23.30
2015,05,21,16,07,23.30
2015,05,21,16,08,23.20
2015,05,21,16,09,23.10
2015,05,21,16,10,23.00
2015,05,21,16,11,22.90
2015,05,21,16,12,22.90
2015,05,21,16,13,22.90
2015,05,21,16,14,22.80
2015,05,21,16,15,22.80
2015,05,21,16,16,22.80
2015,05,21,16,17,22.70
2015,05,21,16,18,22.70
2015,05,21,16,19,22.60
2015,05,21,16,20,22.60
2015,05,21,16,21,22.60
2015,05,21,16,22,22.60
2015,05,21,16,23,22.60
2015,05,21,16,24,22.60
2015,05,21,16,25,22.60
2015,05,21,16,26,22.60
2015,05,21,16,27,22.60
2015,05,21,16,28,22.70
2015,05,21,16,29,22.70
2015,05,21,16,30,22.70
2015,05,21,16,31,22.70
2015,05,21,16,32,22.70
2015,05,21,16,33,22.70
2015,05,21,16,34,22.80
2015,05,21,16,35,22.80
2015,05,21,16,36,22.80
2015,05,21,16,37,22.80
2015,05,21,16,38,22.90
2015,05,21,16,39,22.90
2015,05,21,16,40,23.00
2015,05,21,16,41,23.00
2015,05,21,16,42,23.10
2015,05,21,16,43,23.10
2015,05,21,16,44,23.20
2015,05,21,16,45,23.20
2015,05,21,16,46,23.20
2015,05,21,16,47,23.30
2015,05,21,16,48,23.30
2015,05,21,16,49,23.30
2015,05,21,16,50,23.40
2015,05,21,16,51,23.40
2015,05,21,16,52,23.40
2015,05,21,16,53,23.30
2015,05,21,16,54,23.30
2015,05,21,16,55,23.30
2015,05,21,16,56,23.30
2015,05,21,16,57,23.30
2015,05,21,16,58,23.20
2015,05,21,16,59,23.20
2015,05,21,17,00,23.20
2015,05,21,17,01,23.10
2015,05,21,17,02,23.10
2015,05,21,17,03,23.10
2015,05,21,17,04,23.10
2015,05,21,17,05,23.10
2015,05,21,17,06,23.00
2015,05,21,17,07,23.10
2015,05,21,17,08,23.00
2015,05,21,17,09,23.00
2015,05,21,17,10,23.00
2015,05,21,17,11,23.00
2015,05,21,17,12,23.00
2015,05,21,17,13,23.00
2015,05,21,17,14,23.00
2015,05,21,17,15,23.00
2015,05,21,17,16,22.90
2015,05,21,17,17,22.90
2015,05,21,17,18,22.90
2015,05,21,17,19,22.90